EJA303 KCRG-KFYV

Flight info

Callsign EJA303
Flight time 2h 12m
Altitude 36000
Route TAALR SEEJY BLLBO HRISN CARIN ADDIE
Aircraft C700/M-V/N

Departure

Time 2026-05-04 20:38
Airport Jacksonville Executive at Craig Airport (KCRG)

Arrival

Time 2026-05-04 22:50
Airport Drake Field (KFYV)
Time Latitude Longitude Altitude Speed Heading
2026-05-04 20:29 30.33977 -81.51822 45 ft 0 kts 180°
2026-05-04 20:35 30.33976 -81.51822 45 ft 1 kts 169°
2026-05-04 20:35 30.33977 -81.51813 45 ft 3 kts 59°
2026-05-04 20:35 30.34034 -81.51773 44 ft 14 kts 37°
2026-05-04 20:36 30.34095 -81.51810 42 ft 8 kts 320°
2026-05-04 20:36 30.34146 -81.51865 39 ft 13 kts 314°
2026-05-04 20:36 30.34224 -81.51902 38 ft 14 kts 357°
2026-05-04 20:36 30.34282 -81.51903 36 ft 11 kts 359°
2026-05-04 20:37 30.34363 -81.51884 36 ft 11 kts 73°
2026-05-04 20:37 30.34266 -81.51758 36 ft 53 kts 136°
2026-05-04 20:37 30.33813 -81.51243 43 ft 126 kts 135°
2026-05-04 20:37 30.33078 -81.50436 435 ft 151 kts 135°
2026-05-04 20:38 30.32185 -81.49632 1225 ft 185 kts 154°
2026-05-04 20:38 30.30757 -81.49591 1903 ft 235 kts 195°
2026-05-04 20:38 30.29308 -81.50764 2622 ft 281 kts 227°
2026-05-04 20:38 30.28413 -81.52882 3294 ft 298 kts 256°
2026-05-04 20:39 30.28381 -81.55219 3914 ft 282 kts 275°
2026-05-04 20:39 30.28688 -81.57399 4533 ft 268 kts 279°
2026-05-04 20:39 30.29039 -81.59515 5153 ft 270 kts 280°
2026-05-04 20:39 30.29406 -81.61648 5766 ft 270 kts 280°
2026-05-04 20:40 30.29760 -81.63773 6401 ft 268 kts 281°
2026-05-04 20:40 30.30116 -81.65874 6984 ft 269 kts 282°
2026-05-04 20:40 30.30635 -81.68007 7597 ft 275 kts 286°
2026-05-04 20:40 30.31183 -81.70147 8215 ft 279 kts 285°
2026-05-04 20:41 30.31669 -81.72286 8832 ft 279 kts 283°
2026-05-04 20:41 30.32148 -81.74465 9467 ft 281 kts 284°
2026-05-04 20:41 30.32650 -81.76667 10104 ft 284 kts 284°
2026-05-04 20:41 30.33173 -81.78936 10700 ft 302 kts 284°
2026-05-04 20:42 30.33723 -81.81344 11310 ft 313 kts 284°
2026-05-04 20:42 30.34278 -81.83785 11920 ft 313 kts 284°
2026-05-04 20:42 30.34833 -81.86226 12543 ft 315 kts 284°
2026-05-04 20:42 30.35393 -81.88687 13176 ft 316 kts 284°
2026-05-04 20:43 30.35957 -81.91164 13824 ft 319 kts 284°
2026-05-04 20:43 30.36515 -81.93626 14406 ft 321 kts 284°
2026-05-04 20:43 30.37085 -81.96142 14994 ft 323 kts 284°
2026-05-04 20:43 30.37657 -81.98666 15594 ft 325 kts 284°
2026-05-04 20:44 30.38233 -82.01208 16205 ft 326 kts 284°
2026-05-04 20:44 30.38810 -82.03763 16831 ft 328 kts 284°
2026-05-04 20:44 30.39389 -82.06329 17464 ft 330 kts 283°
2026-05-04 20:44 30.39973 -82.08916 18121 ft 332 kts 283°
2026-05-04 20:45 30.40551 -82.11480 18715 ft 334 kts 283°
2026-05-04 20:45 30.41139 -82.14093 19298 ft 336 kts 283°
2026-05-04 20:45 30.41731 -82.16724 19883 ft 337 kts 283°
2026-05-04 20:45 30.42324 -82.19358 20485 ft 338 kts 283°
2026-05-04 20:46 30.42916 -82.21998 21099 ft 339 kts 283°
2026-05-04 20:46 30.43509 -82.24640 21722 ft 339 kts 283°
2026-05-04 20:46 30.44103 -82.27295 22376 ft 341 kts 283°
2026-05-04 20:46 30.44703 -82.29972 23015 ft 344 kts 283°
2026-05-04 20:47 30.45305 -82.32669 23688 ft 347 kts 283°
2026-05-04 20:47 30.45912 -82.35382 24254 ft 349 kts 283°
2026-05-04 20:47 30.46522 -82.38119 24829 ft 351 kts 283°
2026-05-04 20:47 30.47133 -82.40856 25414 ft 351 kts 283°
2026-05-04 20:48 30.47740 -82.43585 26004 ft 349 kts 283°
2026-05-04 20:48 30.48339 -82.46278 26607 ft 349 kts 283°
2026-05-04 20:48 30.48946 -82.49010 27232 ft 351 kts 283°
2026-05-04 20:48 30.49557 -82.51763 27870 ft 354 kts 283°
2026-05-04 20:49 30.50291 -82.54503 28516 ft 358 kts 288°
2026-05-04 20:49 30.51330 -82.57141 29193 ft 362 kts 295°
2026-05-04 20:49 30.52622 -82.59670 29914 ft 365 kts 297°
2026-05-04 20:49 30.53941 -82.62206 30525 ft 368 kts 297°
2026-05-04 20:50 30.55256 -82.64766 31040 ft 372 kts 297°
2026-05-04 20:50 30.56591 -82.67350 31543 ft 375 kts 297°
2026-05-04 20:50 30.57944 -82.69956 32034 ft 379 kts 297°
2026-05-04 20:50 30.59288 -82.72552 32514 ft 382 kts 297°
2026-05-04 20:51 30.60659 -82.75210 32993 ft 385 kts 296°
2026-05-04 20:51 30.62045 -82.77896 33463 ft 389 kts 296°
2026-05-04 20:51 30.63442 -82.80602 33977 ft 391 kts 297°
2026-05-04 20:51 30.64844 -82.83319 34368 ft 394 kts 297°
2026-05-04 20:52 30.66259 -82.86064 34769 ft 396 kts 297°
2026-05-04 20:52 30.67677 -82.88821 35150 ft 399 kts 297°
2026-05-04 20:52 30.69085 -82.91557 35522 ft 401 kts 297°
2026-05-04 20:52 30.70520 -82.94346 35964 ft 400 kts 297°
2026-05-04 20:53 30.71942 -82.97111 36065 ft 396 kts 297°
2026-05-04 20:53 30.73334 -82.99818 36076 ft 384 kts 297°
2026-05-04 20:53 30.74678 -83.02436 36074 ft 372 kts 296°
2026-05-04 20:53 30.75989 -83.04994 36065 ft 364 kts 296°
2026-05-04 20:54 30.78584 -83.10071 36079 ft 370 kts 296°
2026-05-04 20:54 30.81243 -83.15264 36081 ft 376 kts 296°
2026-05-04 20:55 30.83898 -83.20457 36076 ft 369 kts 297°
2026-05-04 20:55 30.86543 -83.25653 36081 ft 385 kts 297°
2026-05-04 20:56 30.89348 -83.31154 36085 ft 405 kts 297°
2026-05-04 20:56 30.92260 -83.36873 36079 ft 411 kts 297°
2026-05-04 20:57 30.95151 -83.42561 36066 ft 404 kts 297°
2026-05-04 20:57 30.97999 -83.48179 36076 ft 401 kts 297°
2026-05-04 20:58 31.00848 -83.53803 36080 ft 404 kts 297°
2026-05-04 20:58 31.03696 -83.59430 36075 ft 404 kts 297°
2026-05-04 20:59 31.06538 -83.65058 36073 ft 402 kts 297°
2026-05-04 20:59 31.09370 -83.70672 36100 ft 400 kts 297°
2026-05-04 21:00 31.12189 -83.76270 36062 ft 398 kts 297°
2026-05-04 21:00 31.14967 -83.81797 36059 ft 397 kts 297°
2026-05-04 21:01 31.17764 -83.87366 36066 ft 399 kts 297°
2026-05-04 21:01 31.20580 -83.92983 36074 ft 401 kts 297°
2026-05-04 21:02 31.23389 -83.98587 36072 ft 398 kts 297°
2026-05-04 21:02 31.26176 -84.04167 36064 ft 396 kts 297°
2026-05-04 21:03 31.28961 -84.09715 36066 ft 396 kts 299°
2026-05-04 21:03 31.31926 -84.15179 36062 ft 397 kts 299°
2026-05-04 21:04 31.34874 -84.20660 36067 ft 399 kts 299°
2026-05-04 21:04 31.37822 -84.26122 36066 ft 400 kts 299°
2026-05-04 21:05 31.40784 -84.31632 36070 ft 400 kts 299°
2026-05-04 21:05 31.43739 -84.37127 36072 ft 396 kts 299°
2026-05-04 21:06 31.46657 -84.42568 36079 ft 394 kts 299°
2026-05-04 21:06 31.49088 -84.47105 36080 ft 396 kts 299°
2026-05-04 21:07 31.52026 -84.52594 36081 ft 399 kts 299°
2026-05-04 21:07 31.54983 -84.58128 36082 ft 400 kts 299°
2026-05-04 21:08 31.57925 -84.63640 36078 ft 398 kts 299°
2026-05-04 21:08 31.60850 -84.69131 36066 ft 395 kts 300°
2026-05-04 21:09 31.63817 -84.74704 36063 ft 393 kts 300°
2026-05-04 21:09 31.66642 -84.80022 36069 ft 392 kts 300°
2026-05-04 21:10 31.69535 -84.85475 36097 ft 394 kts 300°
2026-05-04 21:10 31.72431 -84.90942 36076 ft 398 kts 300°
2026-05-04 21:11 31.75363 -84.96481 36075 ft 400 kts 300°
2026-05-04 21:11 31.78287 -85.02016 36065 ft 398 kts 300°
2026-05-04 21:12 31.81197 -85.07536 36053 ft 395 kts 300°
2026-05-04 21:12 31.84084 -85.13010 36048 ft 392 kts 300°
2026-05-04 21:13 31.86950 -85.18463 36046 ft 391 kts 300°
2026-05-04 21:13 31.89818 -85.23921 36047 ft 393 kts 300°
2026-05-04 21:14 31.92693 -85.29403 36050 ft 394 kts 300°
2026-05-04 21:14 31.95567 -85.34889 36055 ft 395 kts 300°
2026-05-04 21:15 31.98458 -85.40418 36053 ft 396 kts 300°
2026-05-04 21:15 32.01344 -85.45944 36054 ft 394 kts 300°
2026-05-04 21:16 32.04203 -85.51425 36049 ft 391 kts 300°
2026-05-04 21:16 32.07041 -85.56876 36048 ft 390 kts 300°
2026-05-04 21:17 32.09870 -85.62316 36048 ft 393 kts 300°
2026-05-04 21:17 32.12731 -85.67826 36048 ft 395 kts 300°
2026-05-04 21:18 32.15599 -85.73358 36049 ft 394 kts 300°
2026-05-04 21:18 32.18448 -85.78861 36046 ft 392 kts 300°
2026-05-04 21:19 32.21280 -85.84339 36041 ft 390 kts 300°
2026-05-04 21:19 32.24107 -85.89816 36032 ft 390 kts 300°
2026-05-04 21:20 32.26920 -85.95274 36032 ft 392 kts 300°
2026-05-04 21:20 32.29768 -86.00807 36041 ft 395 kts 300°
2026-05-04 21:21 32.32633 -86.06382 36047 ft 397 kts 300°
2026-05-04 21:21 32.35503 -86.11974 36043 ft 398 kts 300°
2026-05-04 21:22 32.38353 -86.17535 36040 ft 397 kts 300°
2026-05-04 21:22 32.41192 -86.23084 36023 ft 390 kts 300°
2026-05-04 21:23 32.43946 -86.28583 35992 ft 388 kts 299°
2026-05-04 21:23 32.46633 -86.34151 35994 ft 391 kts 299°
2026-05-04 21:24 32.49344 -86.39757 36001 ft 394 kts 299°
2026-05-04 21:24 32.52056 -86.45387 36005 ft 392 kts 299°
2026-05-04 21:25 32.54754 -86.50987 36012 ft 390 kts 299°
2026-05-04 21:25 32.57421 -86.56537 36046 ft 389 kts 299°
2026-05-04 21:26 32.60098 -86.62113 36026 ft 388 kts 299°
2026-05-04 21:26 32.62760 -86.67668 36003 ft 387 kts 299°
2026-05-04 21:27 32.65421 -86.73229 36005 ft 389 kts 299°
2026-05-04 21:27 32.68096 -86.78828 36007 ft 390 kts 299°
2026-05-04 21:28 32.70762 -86.84416 35999 ft 392 kts 299°
2026-05-04 21:28 32.73465 -86.90089 35998 ft 392 kts 299°
2026-05-04 21:29 32.76119 -86.95671 35988 ft 389 kts 300°
2026-05-04 21:29 32.78765 -87.01242 35992 ft 384 kts 300°
2026-05-04 21:30 32.81381 -87.06759 36003 ft 383 kts 300°
2026-05-04 21:30 32.84003 -87.12297 36011 ft 385 kts 300°
2026-05-04 21:31 32.87963 -87.20676 36013 ft 390 kts 299°
2026-05-04 21:32 32.90624 -87.26320 36021 ft 390 kts 299°
2026-05-04 21:32 32.93273 -87.31945 36037 ft 388 kts 299°
2026-05-04 21:33 32.95881 -87.37491 36017 ft 384 kts 300°
2026-05-04 21:33 32.98474 -87.43014 36012 ft 381 kts 300°
2026-05-04 21:34 33.01065 -87.48542 36016 ft 384 kts 300°
2026-05-04 21:34 33.03672 -87.54112 35999 ft 386 kts 300°
2026-05-04 21:35 33.06292 -87.59719 36014 ft 386 kts 300°
2026-05-04 21:35 33.08896 -87.65299 36016 ft 384 kts 300°
2026-05-04 21:36 33.11493 -87.70875 36007 ft 383 kts 300°
2026-05-04 21:36 33.14047 -87.76367 36036 ft 380 kts 300°
2026-05-04 21:37 33.16617 -87.81899 36008 ft 381 kts 300°
2026-05-04 21:37 33.19184 -87.87434 36010 ft 380 kts 300°
2026-05-04 21:38 33.21744 -87.92963 36000 ft 380 kts 300°
2026-05-04 21:38 33.24303 -87.98499 35875 ft 380 kts 300°
2026-05-04 21:38 33.25550 -88.01200 35618 ft 370 kts 300°
2026-05-04 21:39 33.26769 -88.03843 35356 ft 354 kts 300°
2026-05-04 21:39 33.27935 -88.06373 35100 ft 339 kts 300°
2026-05-04 21:39 33.29050 -88.08794 34803 ft 327 kts 300°
2026-05-04 21:39 33.30137 -88.11152 34303 ft 320 kts 300°
2026-05-04 21:40 33.31199 -88.13459 33813 ft 314 kts 300°
2026-05-04 21:40 33.32246 -88.15737 33269 ft 310 kts 300°
2026-05-04 21:40 33.33281 -88.17987 32741 ft 308 kts 299°
2026-05-04 21:40 33.34314 -88.20238 32225 ft 308 kts 299°
2026-05-04 21:41 33.35342 -88.22478 31996 ft 306 kts 299°
2026-05-04 21:41 33.36381 -88.24741 31994 ft 317 kts 299°
2026-05-04 21:41 33.37457 -88.27088 32003 ft 334 kts 299°
2026-05-04 21:41 33.38601 -88.29587 32006 ft 350 kts 299°
2026-05-04 21:42 33.39802 -88.32210 32005 ft 366 kts 299°
2026-05-04 21:42 33.42294 -88.37661 32007 ft 373 kts 298°
2026-05-04 21:43 33.44748 -88.43034 32004 ft 365 kts 298°
2026-05-04 21:43 33.47177 -88.48363 31999 ft 364 kts 299°
2026-05-04 21:44 33.49542 -88.53725 32005 ft 363 kts 297°
2026-05-04 21:44 33.51819 -88.59127 32003 ft 363 kts 297°
2026-05-04 21:45 33.54080 -88.64490 32004 ft 362 kts 297°
2026-05-04 21:45 33.56357 -88.69908 32001 ft 361 kts 297°
2026-05-04 21:46 33.58602 -88.75254 31967 ft 361 kts 297°
2026-05-04 21:46 33.60857 -88.80631 31969 ft 361 kts 297°
2026-05-04 21:47 33.63120 -88.86038 31954 ft 363 kts 298°
2026-05-04 21:47 33.65359 -88.91396 31975 ft 355 kts 298°
2026-05-04 21:48 33.67565 -88.96681 31976 ft 355 kts 298°
2026-05-04 21:48 33.69787 -89.02014 31995 ft 363 kts 297°
2026-05-04 21:49 33.72055 -89.07465 32004 ft 364 kts 297°
2026-05-04 21:49 33.74304 -89.12881 32000 ft 361 kts 297°
2026-05-04 21:50 33.76535 -89.18259 31997 ft 360 kts 297°
2026-05-04 21:50 33.78771 -89.23660 31966 ft 362 kts 297°
2026-05-04 21:51 33.80989 -89.29027 31979 ft 355 kts 297°
2026-05-04 21:51 33.83176 -89.34322 31973 ft 353 kts 297°
2026-05-04 21:52 33.85365 -89.39635 31976 ft 356 kts 297°
2026-05-04 21:52 33.87572 -89.44999 31980 ft 358 kts 297°
2026-05-04 21:53 33.89770 -89.50349 31980 ft 356 kts 297°
2026-05-04 21:53 33.91942 -89.55644 31967 ft 354 kts 297°
2026-05-04 21:54 33.94116 -89.60952 31966 ft 353 kts 297°
2026-05-04 21:54 33.95925 -89.65374 31976 ft 357 kts 297°
2026-05-04 21:55 33.98143 -89.70805 31983 ft 364 kts 297°
2026-05-04 21:55 34.00369 -89.76268 31982 ft 361 kts 297°
2026-05-04 21:56 34.02581 -89.81699 31975 ft 359 kts 297°
2026-05-04 21:56 34.04778 -89.87105 31971 ft 359 kts 297°
2026-05-04 21:57 34.06978 -89.92526 31968 ft 360 kts 297°
2026-05-04 21:57 34.09133 -89.97852 31963 ft 339 kts 297°
2026-05-04 21:57 34.10153 -90.00371 31948 ft 328 kts 297°
2026-05-04 21:58 34.11150 -90.02830 31951 ft 337 kts 297°
2026-05-04 21:58 34.12204 -90.05433 31965 ft 353 kts 297°
2026-05-04 21:58 34.13292 -90.08133 31972 ft 361 kts 297°
2026-05-04 21:59 34.15479 -90.13561 31968 ft 355 kts 297°
2026-05-04 21:59 34.17620 -90.18876 31951 ft 351 kts 297°
2026-05-04 22:00 34.19760 -90.24199 31947 ft 354 kts 297°
2026-05-04 22:00 34.21917 -90.29574 31962 ft 357 kts 297°
2026-05-04 22:01 34.24098 -90.35017 31956 ft 361 kts 297°
2026-05-04 22:01 34.26277 -90.40465 31945 ft 356 kts 297°
2026-05-04 22:02 34.28392 -90.45760 31932 ft 349 kts 297°
2026-05-04 22:02 34.30515 -90.51083 31937 ft 353 kts 297°
2026-05-04 22:03 34.32656 -90.56463 31942 ft 356 kts 297°
2026-05-04 22:03 34.34798 -90.61850 31949 ft 354 kts 297°
2026-05-04 22:04 34.36923 -90.67205 31938 ft 352 kts 297°
2026-05-04 22:04 34.39024 -90.72507 31937 ft 351 kts 297°
2026-05-04 22:05 34.41140 -90.77855 31937 ft 352 kts 297°
2026-05-04 22:05 34.43253 -90.83206 31929 ft 352 kts 297°
2026-05-04 22:06 34.45448 -90.88505 31850 ft 347 kts 301°
2026-05-04 22:06 34.48139 -90.93230 31885 ft 344 kts 305°
2026-05-04 22:07 34.50996 -90.98046 31892 ft 357 kts 305°
2026-05-04 22:07 34.53877 -91.02868 31883 ft 353 kts 305°
2026-05-04 22:08 34.56732 -91.07668 31878 ft 349 kts 305°
2026-05-04 22:08 34.59585 -91.12467 31878 ft 351 kts 305°
2026-05-04 22:09 34.62450 -91.17292 31870 ft 352 kts 304°
2026-05-04 22:09 34.65311 -91.22121 31864 ft 352 kts 304°
2026-05-04 22:10 34.68173 -91.26956 31862 ft 351 kts 304°
2026-05-04 22:10 34.71011 -91.31756 31859 ft 351 kts 304°
2026-05-04 22:11 34.73861 -91.36583 31865 ft 351 kts 305°
2026-05-04 22:11 34.76707 -91.41410 31868 ft 351 kts 305°
2026-05-04 22:12 34.79535 -91.46213 31867 ft 351 kts 304°
2026-05-04 22:12 34.80955 -91.48628 31664 ft 351 kts 304°
2026-05-04 22:12 34.82368 -91.51031 31284 ft 343 kts 304°
2026-05-04 22:12 34.83733 -91.53354 30891 ft 331 kts 304°
2026-05-04 22:13 34.85048 -91.55594 30515 ft 318 kts 304°
2026-05-04 22:13 34.86317 -91.57757 30056 ft 311 kts 304°
2026-05-04 22:13 34.87559 -91.59876 29524 ft 304 kts 304°
2026-05-04 22:13 34.88779 -91.61960 28993 ft 299 kts 304°
2026-05-04 22:14 34.89983 -91.64015 28470 ft 297 kts 304°
2026-05-04 22:14 34.91181 -91.66062 27971 ft 297 kts 304°
2026-05-04 22:14 34.92364 -91.68085 27467 ft 298 kts 304°
2026-05-04 22:14 34.93584 -91.70173 26975 ft 300 kts 304°
2026-05-04 22:15 34.94796 -91.72246 26542 ft 301 kts 304°
2026-05-04 22:15 34.95993 -91.74297 26124 ft 301 kts 304°
2026-05-04 22:15 34.97211 -91.76384 25705 ft 302 kts 304°
2026-05-04 22:15 34.98430 -91.78473 25311 ft 303 kts 304°
2026-05-04 22:16 34.99653 -91.80573 24913 ft 304 kts 304°
2026-05-04 22:16 35.00881 -91.82681 24516 ft 305 kts 304°
2026-05-04 22:16 35.02113 -91.84796 24109 ft 306 kts 304°
2026-05-04 22:16 35.03345 -91.86913 23714 ft 305 kts 304°
2026-05-04 22:17 35.04572 -91.89025 23305 ft 305 kts 304°
2026-05-04 22:17 35.05800 -91.91137 22840 ft 304 kts 304°
2026-05-04 22:17 35.07016 -91.93231 22394 ft 301 kts 304°
2026-05-04 22:17 35.08220 -91.95305 21947 ft 298 kts 304°
2026-05-04 22:18 35.09412 -91.97361 21509 ft 295 kts 304°
2026-05-04 22:18 35.10579 -91.99373 21075 ft 293 kts 304°
2026-05-04 22:18 35.11753 -92.01398 20650 ft 291 kts 304°
2026-05-04 22:18 35.12916 -92.03408 20229 ft 289 kts 304°
2026-05-04 22:19 35.14075 -92.05409 19805 ft 288 kts 304°
2026-05-04 22:19 35.15228 -92.07403 19409 ft 287 kts 304°
2026-05-04 22:19 35.16378 -92.09393 19004 ft 286 kts 304°
2026-05-04 22:19 35.17529 -92.11385 18603 ft 286 kts 304°
2026-05-04 22:20 35.18675 -92.13369 18214 ft 285 kts 304°
2026-05-04 22:20 35.19819 -92.15352 17767 ft 285 kts 304°
2026-05-04 22:20 35.20959 -92.17327 17461 ft 281 kts 304°
2026-05-04 22:20 35.22077 -92.19265 17198 ft 278 kts 304°
2026-05-04 22:21 35.23183 -92.21185 17073 ft 275 kts 303°
2026-05-04 22:21 35.24286 -92.23102 16944 ft 277 kts 303°
2026-05-04 22:21 35.25387 -92.25016 16821 ft 281 kts 303°
2026-05-04 22:21 35.26520 -92.26986 16698 ft 284 kts 303°
2026-05-04 22:22 35.27661 -92.28970 16577 ft 286 kts 303°
2026-05-04 22:22 35.28802 -92.30953 16440 ft 284 kts 303°
2026-05-04 22:22 35.29932 -92.32921 16313 ft 281 kts 303°
2026-05-04 22:22 35.31053 -92.34875 16183 ft 279 kts 303°
2026-05-04 22:23 35.32167 -92.36818 16058 ft 278 kts 303°
2026-05-04 22:23 35.33290 -92.38778 16057 ft 284 kts 303°
2026-05-04 22:23 35.34416 -92.40744 16058 ft 285 kts 303°
2026-05-04 22:23 35.35553 -92.42727 16058 ft 283 kts 303°
2026-05-04 22:24 35.36678 -92.44692 16054 ft 280 kts 303°
2026-05-04 22:24 35.37788 -92.46633 16050 ft 278 kts 303°
2026-05-04 22:24 35.38893 -92.48566 16048 ft 277 kts 303°
2026-05-04 22:24 35.40001 -92.50507 16048 ft 278 kts 303°
2026-05-04 22:25 35.41113 -92.52454 16050 ft 280 kts 303°
2026-05-04 22:25 35.42235 -92.54419 16054 ft 282 kts 303°
2026-05-04 22:25 35.43360 -92.56391 16055 ft 282 kts 303°
2026-05-04 22:25 35.44485 -92.58365 16055 ft 282 kts 303°
2026-05-04 22:26 35.45604 -92.60329 16053 ft 280 kts 303°
2026-05-04 22:26 35.46717 -92.62283 16053 ft 279 kts 303°
2026-05-04 22:26 35.47811 -92.64205 16054 ft 278 kts 303°
2026-05-04 22:26 35.48921 -92.66158 16053 ft 279 kts 303°
2026-05-04 22:27 35.50035 -92.68118 16048 ft 280 kts 303°
2026-05-04 22:27 35.51146 -92.70072 16050 ft 280 kts 303°
2026-05-04 22:27 35.52261 -92.72035 16049 ft 281 kts 303°
2026-05-04 22:27 35.53378 -92.74004 16048 ft 281 kts 303°
2026-05-04 22:28 35.54497 -92.75974 16050 ft 281 kts 303°
2026-05-04 22:28 35.55615 -92.77951 16044 ft 282 kts 303°
2026-05-04 22:28 35.56737 -92.79926 16047 ft 281 kts 303°
2026-05-04 22:28 35.57855 -92.81899 16038 ft 280 kts 303°
2026-05-04 22:29 35.58962 -92.83862 16037 ft 279 kts 303°
2026-05-04 22:29 35.60063 -92.85819 16041 ft 277 kts 303°
2026-05-04 22:29 35.61158 -92.87744 16042 ft 279 kts 303°
2026-05-04 22:29 35.62267 -92.89707 16030 ft 280 kts 302°
2026-05-04 22:30 35.63374 -92.91680 16034 ft 281 kts 303°
2026-05-04 22:30 35.64497 -92.93652 16039 ft 282 kts 303°
2026-05-04 22:30 35.65620 -92.95630 16037 ft 282 kts 303°
2026-05-04 22:30 35.66733 -92.97612 16041 ft 281 kts 303°
2026-05-04 22:31 35.67845 -92.99601 16021 ft 281 kts 302°
2026-05-04 22:31 35.68955 -93.01574 16025 ft 280 kts 303°
2026-05-04 22:31 35.70064 -93.03536 16020 ft 280 kts 303°
2026-05-04 22:31 35.71169 -93.05501 16015 ft 279 kts 302°
2026-05-04 22:32 35.72274 -93.07466 16014 ft 279 kts 302°
2026-05-04 22:32 35.73376 -93.09430 16014 ft 279 kts 302°
2026-05-04 22:32 35.74480 -93.11397 16014 ft 279 kts 302°
2026-05-04 22:32 35.75582 -93.13357 16016 ft 278 kts 302°
2026-05-04 22:33 35.76676 -93.15314 16010 ft 277 kts 302°
2026-05-04 22:33 35.77771 -93.17270 16010 ft 276 kts 302°
2026-05-04 22:33 35.78857 -93.19199 16010 ft 278 kts 302°
2026-05-04 22:33 35.79968 -93.21188 16008 ft 280 kts 302°
2026-05-04 22:34 35.81068 -93.23137 16029 ft 280 kts 303°
2026-05-04 22:34 35.82175 -93.25123 16004 ft 281 kts 302°
2026-05-04 22:34 35.83272 -93.27111 16005 ft 280 kts 302°
2026-05-04 22:34 35.84381 -93.29086 16008 ft 280 kts 302°
2026-05-04 22:35 35.85487 -93.31056 16007 ft 280 kts 302°
2026-05-04 22:35 35.86595 -93.33040 16006 ft 281 kts 302°
2026-05-04 22:35 35.87702 -93.35030 16008 ft 281 kts 302°
2026-05-04 22:35 35.88807 -93.37020 15999 ft 281 kts 302°
2026-05-04 22:36 35.89915 -93.39008 16001 ft 281 kts 302°
2026-05-04 22:36 35.91009 -93.40973 15918 ft 283 kts 302°
2026-05-04 22:36 35.92107 -93.43059 15678 ft 287 kts 301°
2026-05-04 22:36 35.93149 -93.45068 15726 ft 278 kts 300°
2026-05-04 22:37 35.94174 -93.47060 15723 ft 272 kts 300°
2026-05-04 22:37 35.95184 -93.49022 15727 ft 271 kts 300°
2026-05-04 22:37 35.96206 -93.51008 15717 ft 276 kts 300°
2026-05-04 22:37 35.97251 -93.53034 15550 ft 286 kts 301°
2026-05-04 22:38 35.98328 -93.55122 15232 ft 287 kts 300°
2026-05-04 22:38 35.99389 -93.57167 14907 ft 278 kts 300°
2026-05-04 22:38 36.00421 -93.59147 14585 ft 270 kts 300°
2026-05-04 22:38 36.01438 -93.61073 14254 ft 265 kts 300°
2026-05-04 22:39 36.02439 -93.62960 13894 ft 262 kts 301°
2026-05-04 22:39 36.03434 -93.64828 13537 ft 259 kts 300°
2026-05-04 22:39 36.04428 -93.66674 13138 ft 257 kts 301°
2026-05-04 22:39 36.05401 -93.68486 12757 ft 256 kts 300°
2026-05-04 22:40 36.06384 -93.70305 12374 ft 253 kts 301°
2026-05-04 22:40 36.07338 -93.72118 11988 ft 251 kts 298°
2026-05-04 22:40 36.08237 -93.73959 11622 ft 248 kts 298°
2026-05-04 22:40 36.09121 -93.75777 11262 ft 247 kts 297°
2026-05-04 22:41 36.09985 -93.77610 10897 ft 246 kts 297°
2026-05-04 22:41 36.10830 -93.79449 10486 ft 248 kts 296°
2026-05-04 22:41 36.11686 -93.81318 10022 ft 250 kts 296°
2026-05-04 22:41 36.12551 -93.83195 9540 ft 252 kts 296°
2026-05-04 22:42 36.13414 -93.85061 9258 ft 246 kts 296°
2026-05-04 22:42 36.14216 -93.86894 8990 ft 239 kts 293°
2026-05-04 22:42 36.14955 -93.88702 8728 ft 233 kts 292°
2026-05-04 22:42 36.15667 -93.90453 8478 ft 229 kts 292°
2026-05-04 22:43 36.16249 -93.92273 8181 ft 221 kts 275°
2026-05-04 22:43 36.16221 -93.94152 7677 ft 227 kts 262°
2026-05-04 22:43 36.16028 -93.96135 6972 ft 235 kts 260°
2026-05-04 22:43 36.15835 -93.98162 6302 ft 239 kts 260°
2026-05-04 22:44 36.15662 -94.00202 5812 ft 236 kts 260°
2026-05-04 22:44 36.15521 -94.02213 5318 ft 233 kts 261°
2026-05-04 22:44 36.15441 -94.03537 5026 ft 231 kts 261°
2026-05-04 22:44 36.15352 -94.05427 5002 ft 210 kts 260°
2026-05-04 22:45 36.15285 -94.07136 5012 ft 186 kts 260°
2026-05-04 22:45 36.15226 -94.10158 4503 ft 169 kts 261°
2026-05-04 22:45 36.14932 -94.11950 4111 ft 156 kts 241°
2026-05-04 22:46 36.14657 -94.12788 3920 ft 154 kts 241°
2026-05-04 22:46 36.14260 -94.13997 3649 ft 153 kts 242°
2026-05-04 22:46 36.13852 -94.15207 3378 ft 151 kts 240°
2026-05-04 22:46 36.13446 -94.16406 3098 ft 150 kts 238°
2026-05-04 22:47 36.12741 -94.17210 2985 ft 131 kts 199°
2026-05-04 22:47 36.11923 -94.17639 3009 ft 128 kts 203°
2026-05-04 22:47 36.11073 -94.18154 3018 ft 143 kts 206°
2026-05-04 22:47 36.10166 -94.18717 3007 ft 147 kts 200°
2026-05-04 22:48 36.09157 -94.18968 2816 ft 149 kts 185°
2026-05-04 22:48 36.08138 -94.18861 2584 ft 146 kts 171°
2026-05-04 22:48 36.07143 -94.18593 2401 ft 148 kts 173°
2026-05-04 22:48 36.06139 -94.18366 2226 ft 146 kts 171°
2026-05-04 22:49 36.05109 -94.18123 2070 ft 150 kts 169°
2026-05-04 22:49 36.04115 -94.17868 2002 ft 143 kts 173°
2026-05-04 22:49 36.03155 -94.17650 1845 ft 136 kts 170°
2026-05-04 22:49 36.02314 -94.17472 1673 ft 119 kts 163°
2026-05-04 22:50 36.01499 -94.17240 1365 ft 123 kts 168°
2026-05-04 22:50 36.00737 -94.17061 1249 ft 86 kts 169°
2026-05-04 22:50 36.00454 -94.16996 1247 ft 20 kts 171°
2026-05-04 22:50 36.00405 -94.17061 1246 ft 13 kts 258°
2026-05-04 22:51 36.00401 -94.17082 1246 ft 0 kts 259°
2026-05-04 22:51 36.00407 -94.17103 1246 ft 4 kts 314°
2026-05-04 22:51 36.00383 -94.17135 1245 ft 6 kts 212°
2026-05-04 22:51 36.00375 -94.17158 1245 ft 0 kts 263°